Iron Mountain, MI

2:31 AM CST on February 08, 2016 (GMT -0600)
Ford

Weather History for KIMT - June, 2014

Change the Weather History Date:

Monday, June 23, 2014

  Actual Average Record
Temperature  
Mean Temperature 68 °F -  
Max Temperature 78 °F - - ()
Min Temperature 61 °F - - ()
Cooling Degree Days 3    
Growing Degree Days 18 (Base 50)    
Moisture  
Dew Point 63 °F    
Average Humidity 88    
Maximum Humidity 97    
Minimum Humidity 67    
Precipitation  
Precipitation 0.06 in - - ()
Sea Level Pressure  
Sea Level Pressure 29.85 in    
Wind  
Wind Speed 5 mph (SSE)    
Max Wind Speed 10 mph    
Max Gust Speed -    
Visibility 7 miles    
Events Rain    
T = Trace of Precipitation, MM = Missing Value Source: NWS Daily Summary

Daily Weather History Graph

Daily Weather History Graph

Search for Another Location

Airport or City:

Trip Planner

Search our weather history database for the weather conditions in past years. The results will help you decide how hot, cold, wet, or windy it might be!

Date:

Astronomy

Jun. 23, 2014 Rise Set
Actual Time 5:02 AM CDT 8:46 PM CDT
Civil Twilight 4:24 AM CDT 9:24 PM CDT
Nautical Twilight 3:32 AM CDT 10:16 PM CDT
Astronomical Twilight 2:21 AM CDT 11:27 PM CDT
Moon 2:37 AM CDT (6/23) 5:19 PM CDT (6/23)
Length of Visible Light 17h 00m
Length of Day
15h 43m
Waning Crescent, 13% of the Moon is Illuminated
Jun 23
Waning Crescent
Jun 27
New
Jul 5
First Quarter
Jul 12
Full
Jul 18
Last Quarter

Hourly Weather History & Observations

Time (CDT) Temp. Dew Point Humidity Pressure Visibility Wind Dir Wind Speed Gust Speed Precip Events Conditions
12:54 AM 64.0 °F 61.0 °F 90% 29.86 in 10.0 mi SE 5.8 mph - N/A   Partly Cloudy
1:54 AM 63.0 °F 61.0 °F 93% 29.87 in 7.0 mi ESE 6.9 mph - N/A   Mostly Cloudy
2:13 AM 63.0 °F 62.1 °F 97% 29.87 in 6.0 mi SSE 8.1 mph - N/A   Overcast
2:22 AM 63.0 °F 61.0 °F 93% 29.86 in 5.0 mi ESE 6.9 mph - N/A   Overcast
2:54 AM 62.1 °F 61.0 °F 96% 29.87 in 4.0 mi South 4.6 mph - N/A   Overcast
3:34 AM 62.1 °F 61.0 °F 96% 29.86 in 6.0 mi Calm Calm - N/A   Overcast
3:54 AM 62.1 °F 61.0 °F 96% 29.85 in 6.0 mi South 4.6 mph - 0.00 in   Overcast
4:54 AM 62.1 °F 61.0 °F 96% 29.86 in 5.0 mi Calm Calm - 0.00 in Rain Light Rain
5:26 AM 61.0 °F 60.1 °F 97% 29.86 in 1.8 mi SSE 3.5 mph - 0.00 in   Mostly Cloudy
5:45 AM 62.1 °F 61.0 °F 96% 29.86 in 2.0 mi Calm Calm - 0.00 in   Mostly Cloudy
5:54 AM 62.1 °F 61.0 °F 96% 29.85 in 2.0 mi SE 3.5 mph - 0.00 in   Mostly Cloudy
6:09 AM 62.1 °F 61.0 °F 96% 29.86 in 4.0 mi SSE 4.6 mph - N/A   Overcast
6:54 AM 63.0 °F 60.1 °F 90% 29.85 in 6.0 mi Calm Calm - N/A   Overcast
7:54 AM 64.0 °F 61.0 °F 90% 29.84 in 8.0 mi Calm Calm - N/A   Overcast
8:54 AM 64.9 °F 61.0 °F 87% 29.86 in 9.0 mi Calm Calm - N/A   Overcast
9:54 AM 66.0 °F 61.0 °F 84% 29.86 in 9.0 mi Calm Calm - 0.00 in   Overcast
10:54 AM 66.9 °F 61.0 °F 81% 29.87 in 10.0 mi SSE 3.5 mph - N/A   Overcast
11:47 AM 70.0 °F 61.0 °F 73% 29.87 in 10.0 mi South 4.6 mph - N/A   Overcast
11:54 AM 71.1 °F 62.1 °F 73% 29.87 in 10.0 mi SSE 4.6 mph - N/A   Overcast
12:54 PM 70.0 °F 62.1 °F 76% 29.87 in 10.0 mi SE 4.6 mph - N/A   Overcast
1:54 PM 73.0 °F 64.0 °F 73% 29.85 in 10.0 mi Variable 6.9 mph - N/A   Mostly Cloudy
2:02 PM 73.9 °F 64.0 °F 71% 29.86 in 10.0 mi Variable 6.9 mph - N/A   Mostly Cloudy
2:11 PM 75.0 °F 64.0 °F 69% 29.86 in 10.0 mi Variable 6.9 mph - N/A   Mostly Cloudy
2:54 PM 75.9 °F 64.0 °F 67% 29.84 in 10.0 mi SSE 9.2 mph - N/A   Mostly Cloudy
5:54 PM 73.9 °F 64.9 °F 73% 29.81 in 10.0 mi East 3.5 mph - N/A   Overcast
6:54 PM 71.1 °F 66.0 °F 84% 29.81 in 2.0 mi SSW 8.1 mph - 0.03 in Rain Rain
7:01 PM 70.0 °F 66.0 °F 87% 29.82 in 1.0 mi SSE 10.4 mph - 0.02 in Rain Rain
7:09 PM 70.0 °F 66.9 °F 90% 29.82 in 2.0 mi SSE 10.4 mph - 0.03 in Rain Light Rain
7:19 PM 70.0 °F 66.9 °F 90% 29.82 in 5.0 mi SE 6.9 mph - 0.03 in Rain Light Rain
7:54 PM 69.1 °F 66.0 °F 90% 29.82 in 10.0 mi SE 5.8 mph - 0.03 in   Overcast
8:54 PM 68.0 °F 66.0 °F 93% 29.83 in 8.0 mi ESE 5.8 mph - 0.00 in   Overcast
9:54 PM 64.9 °F 64.0 °F 97% 29.86 in 8.0 mi SSE 3.5 mph - N/A   Mostly Cloudy
10:27 PM 64.9 °F 64.0 °F 97% 29.86 in 4.0 mi Calm Calm - N/A   Scattered Clouds
10:54 PM 66.0 °F 64.0 °F 93% 29.85 in 4.0 mi SE 4.6 mph - N/A   Mostly Cloudy
11:35 PM 64.9 °F 64.0 °F 97% 29.86 in 7.0 mi SE 4.6 mph - N/A   Mostly Cloudy
11:54 PM 64.9 °F 64.0 °F 97% 29.86 in 7.0 mi Calm Calm - N/A   Mostly Cloudy